This is the latest recevied weather packets stored in our database for station/object K0VSC-1. If no packets are shown the sender has not sent any weather packets the latest 10 day(s).
| Time | Temp. | Humidity | Pressure | Rain* | Wind** | Luminosity | Snow |
|---|---|---|---|---|---|---|---|
| 1777430002 | 5° C | 61% | 1018.6 hPa | 0.25 mm | - | 0 W/m² | - |
| 1777429702 | 5° C | 61% | 1018.6 hPa | 0.25 mm | - | 0 W/m² | - |
| 1777429402 | 5.56° C | 60% | 1018.5 hPa | 0.25 mm | - | 0 W/m² | - |
| 1777429102 | 5.56° C | 60% | 1018.4 hPa | 0.25 mm | - | 0 W/m² | - |
| 1777428802 | 5.56° C | 59% | 1018.4 hPa | 0.25 mm | - | 0 W/m² | - |
| 1777428502 | 5.56° C | 60% | 1018.3 hPa | 0.25 mm | - | 0 W/m² | - |
| 1777428202 | 5.56° C | 60% | 1018.3 hPa | 0.25 mm | - | 0 W/m² | - |
| 1777427902 | 5.56° C | 58% | 1018.2 hPa | 0 mm | - | 0 W/m² | - |
| 1777427602 | 5.56° C | 59% | 1018.1 hPa | 0 mm | - | 0 W/m² | - |
| 1777427302 | 6.11° C | 59% | 1018 hPa | 0 mm | - | 0 W/m² | - |
| 1777427002 | 6.11° C | 57% | 1017.9 hPa | 0 mm | - | 0 W/m² | - |
| 1777426702 | 6.11° C | 57% | 1017.9 hPa | 0 mm | - | 0 W/m² | - |
| 1777426402 | 6.11° C | 57% | 1017.8 hPa | 0 mm | - | 0 W/m² | - |
| 1777426102 | 6.11° C | 55% | 1017.8 hPa | 0 mm | - | 0 W/m² | - |
| 1777425802 | 6.11° C | 56% | 1017.8 hPa | 0 mm | - | 0 W/m² | - |
| 1777425502 | 6.11° C | 55% | 1017.8 hPa | 0 mm | - | 7 W/m² | - |
| 1777425202 | 6.67° C | 54% | 1017.6 hPa | 0 mm | - | 7 W/m² | - |
| 1777424902 | 6.67° C | 54% | 1017.4 hPa | 0 mm | - | 12 W/m² | - |
| 1777424602 | 6.67° C | 54% | 1017.5 hPa | 0 mm | - | 19 W/m² | - |
| 1777424302 | 6.67° C | 53% | 1017.5 hPa | 0 mm | - | 23 W/m² | - |
| 1777424002 | 6.67° C | 53% | 1017.4 hPa | 0 mm | - | 25 W/m² | - |
| 1777423702 | 6.67° C | 53% | 1017.4 hPa | 0 mm | - | 30 W/m² | - |
| 1777423402 | 6.67° C | 53% | 1017.4 hPa | 0.25 mm | - | 33 W/m² | - |
| 1777423102 | 6.67° C | 53% | 1017.3 hPa | 0.25 mm | - | 37 W/m² | - |
| 1777422802 | 6.67° C | 55% | 1017.2 hPa | 0.25 mm | - | 39 W/m² | - |
* Rain latest hour (hover to see other rain measurements)
** Current wind speed in m/s (hover to see current wind gust speed)